{"data":{"norad_id":64545,"epoch":"2026-09-21T20:09:04.908096Z","epoch_age_seconds":65972,"freshness":"FRESH","line1":"1 64545U 25135T   26264.83964014  .00001949  00000+0  94424-4 0  9994","line2":"2 64545  97.4688  18.6701 0008071 164.5245 195.6238 15.19707205 69527","mean_motion":15.19707205,"eccentricity":0.0008071,"inclination_deg":97.4688,"raan_deg":18.6701,"arg_perigee_deg":164.5245,"mean_anomaly_deg":195.6238,"bstar":9.4424e-5,"rev_number":6952,"period_min":94.755094617058,"perigee_km":501.1680162801,"apogee_km":512.28156017866,"semimajor_km":6884.8617882294,"source":"CELESTRAK","updated_at":"2026-09-22T09:00:29.842459Z"}}